Temp
-6 -6 -5 -5 -5 -5 -5 -5 -5 -5 -5 -5 -4 -4 -4 -4 -4 -4 -5 -5 -5 -5 -5 -5 -5 -5 -5 -5 -5 -5 -5 -5 -5 -5 -5 -5 -5 -6 -6 -6 -6 -6 -6
-6 -5 -5 -5 -5 -5 -5 -5 -5 -5 -5 -5 -5 -5 -5 -5 -5 -5 -5 -5 -5 -5 -5 -5 -5 -5 -5 -5 -5 -5 -5 -5 -5 -5 -5 -5 -6 -6 -6 -6 -6 -7 -7
-6 -6 -6 -6 -6 -5 -6 -6 -5 -5 -5 -5 -5 -5 -5 -5 -5 -5 -5 -5 -5 -5 -5 -5 -5 -5 -5 -5 -5 -5 -6 -6 -6 -6 -6 -6 -6 -6 -6 -6 -7 -7 -7
-7 -7 -6 -6 -6 -6 -6 -6 -6 -6 -6 -5 -5 -5 -5 -5 -5 -5 -5 -5 -5 -5 -5 -5 -6 -6 -6 -6 -6 -6 -6 -6 -6 -6 -6 -6 -6 -6 -7 -7 -7 -7 -7
-7 -7 -7 -7 -6 -6 -6 -6 -6 -6 -6 -6 -6 -5 -5 -5 -5 -5 -5 -6 -6 -6 -6 -6 -6 -6 -6 -6 -6 -6 -6 -6 -6 -6 -7 -7 -7 -7 -7 -7 -7 -7 -7
-8 -7 -7 -7 -7 -7 -7 -7 -7 -6 -6 -6 -6 -6 -6 -6 -6 -6 -6 -6 -6 -6 -6 -6 -6 -6 -6 -6 -6 -6 -6 -6 -7 -7 -7 -7 -7 -7 -7 -7 -7 -8 -8
-8 -8 -8 -8 -8 -7 -7 -7 -7 -7 -6 -6 -6 -6 -6 -6 -6 -6 -6 -6 -6 -7 -7 -7 -7 -7 -7 -7 -7 -7 -7 -7 -7 -7 -7 -7 -7 -7 -8 -8 -8 -8 -8
-8 -8 -8 -8 -8 -8 -7 -7 -7 -7 -6 -6 -6 -6 -6 -6 -6 -6 -6 -6 -7 -7 -7 -7 -7 -7 -7 -7 -7 -7 -7 -7 -7 -7 -8 -8 -8 -8 -8 -8 -8 -8 -8
-8 -8 -8 -8 -8 -8 -8 -8 -7 -7 -7 -6 -6 -6 -6 -6 -7 -7 -7 -7 -7 -7 -7 -7 -7 -7 -7 -7 -7 -7 -7 -7 -8 -8 -8 -8 -8 -8 -8 -8 -8 -8 -8
-8 -8 -9 -9 -9 -9 -8 -8 -8 -7 -7 -7 -6 -7 -7 -7 -7 -7 -7 -7 -8 -8 -8 -8 -8 -8 -8 -8 -8 -8 -8 -8 -8 -8 -8 -8 -8 -8 -8 -8 -8 -8 -8
-9 -9 -9 -9 -9 -9 -9 -8 -8 -8 -7 -7 -7 -7 -7 -7 -7 -8 -8 -8 -8 -8 -8 -8 -8 -8 -8 -8 -8 -8 -8 -8 -8 -8 -8 -8 -8 -8 -8 -9 -9 -9 -9
-9 -10 -9 -9 -10 -9 -9 -9 -8 -8 -8 -7 -7 -7 -7 -7 -8 -8 -8 -8 -8 -8 -8 -8 -8 -8 -8 -8 -8 -8 -8 -8 -8 -8 -8 -8 -9 -9 -9 -9 -9 -9 -9
-9 -10 -10 -10 -10 -10 -9 -9 -9 -8 -8 -8 -8 -8 -8 -8 -8 -8 -8 -8 -8 -9 -9 -9 -9 -9 -9 -9 -9 -9 -9 -9 -9 -9 -9 -9 -9 -9 -9 -9 -9 -9 -9
-9 -9 -10 -10 -10 -10 -10 -9 -9 -9 -9 -8 -8 -8 -8 -8 -8 -8 -8 -8 -9 -9 -9 -9 -9 -9 -9 -9 -9 -9 -9 -9 -9 -9 -9 -9 -9 -9 -9 -9 -9 -9 -10
-10 -9 -9 -10 -10 -11 -10 -10 -9 -9 -9 -9 -9 -9 -8 -8 -8 -8 -8 -8 -8 -9 -9 -9 -9 -9 -9 -9 -9 -9 -9 -9 -9 -9 -9 -9 -9 -9 -10 -10 -10 -10 -10
-10 -9 -9 -9 -10 -11 -11 -11 -10 -9 -9 -9 -9 -9 -9 -9 -9 -9 -9 -9 -9 -9 -9 -9 -9 -9 -9 -9 -10 -10 -10 -10 -10 -10 -10 -10 -10 -10 -10 -10 -10 -10 -10
-10 -10 -10 -10 -10 -10 -11 -12 -11 -10 -10 -10 -10 -10 -9 -9 -9 -9 -9 -9 -9 -9 -9 -10 -10 -10 -10 -10 -10 -10 -10 -10 -10 -10 -10 -10 -10 -10 -10 -10 -11 -11 -11
-11 -11 -11 -10 -9 -10 -10 -10 -11 -11 -10 -10 -10 -10 -9 -10 -10 -9 -9 -9 -9 -9 -10 -10 -10 -10 -10 -10 -10 -10 -10 -10 -10 -10 -10 -10 -10 -10 -11 -11 -11 -11 -11
-11 -11 -11 -11 -11 -11 -10 -11 -10 -11 -11 -11 -10 -10 -10 -10 -10 -10 -10 -10 -10 -10 -10 -10 -10 -10 -10 -10 -10 -10 -10 -10 -10 -10 -11 -11 -11 -11 -11 -11 -11 -11 -11
-11 -11 -11 -11 -11 -12 -11 -11 -10 -10 -11 -11 -11 -10 -11 -11 -11 -11 -11 -10 -10 -10 -11 -10 -10 -10 -10 -10 -10 -10 -10 -10 -11 -11 -11 -11 -11 -11 -11 -11 -11 -11 -11
-11 -11 -11 -11 -11 -11 -11 -11 -11 -11 -11 -11 -10 -10 -10 -11 -11 -11 -11 -11 -11 -11 -10 -11 -10 -10 -10 -11 -11 -11 -11 -11 -11 -11 -11 -11 -11 -11 -11 -11 -11 -11 -12
-12 -12 -12 -12 -12 -11 -11 -11 -11 -11 -11 -11 -11 -11 -11 -11 -11 -11 -12 -12 -11 -11 -11 -11 -11 -11 -11 -11 -11 -11 -12 -12 -11 -11 -11 -11 -11 -11 -12 -12 -12 -12 -12
-13 -13 -13 -13 -13 -12 -12 -11 -11 -11 -11 -11 -11 -11 -11 -11 -11 -11 -11 -11 -11 -11 -11 -11 -11 -11 -12 -12 -11 -11 -12 -13 -12 -12 -12 -12 -12 -12 -12 -12 -12 -12 -12
-14 -15 -13 -12 -13 -12 -13 -11 -11 -11 -11 -11 -11 -11 -11 -11 -11 -11 -11 -11 -11 -11 -12 -11 -12 -11 -12 -12 -12 -12 -12 -12 -13 -13 -13 -13 -13 -13 -12 -12 -12 -12 -12
-15 -15 -15 -15 -15 -14 -13 -12 -12 -11 -11 -11 -11 -11 -10 -11 -11 -11 -11 -11 -11 -12 -12 -12 -12 -12 -12 -12 -12 -13 -13 -13 -12 -12 -13 -13 -12 -12 -13 -13 -13 -13 -13
-15 -15 -15 -15 -14 -15 -15 -14 -13 -12 -12 -12 -12 -12 -12 -12 -12 -12 -12 -11 -12 -12 -12 -12 -12 -12 -13 -12 -13 -13 -13 -13 -13 -13 -13 -13 -13 -13 -13 -13 -13 -13 -13
Height
5875 5877 5880 5882 5884 5886 5888 5890 5891 5893 5894 5894 5894 5895 5895 5896 5897 5897 5897 5897 5897 5897 5897 5897 5896 5896 5896 5895 5895 5894 5894 5894 5894 5894 5893 5893 5892 5891 5890 5889 5887 5886 5885
5871 5873 5876 5879 5881 5883 5885 5887 5889 5890 5892 5893 5893 5894 5894 5895 5896 5896 5896 5896 5896 5895 5896 5896 5896 5895 5895 5894 5894 5893 5893 5893 5893 5893 5892 5892 5891 5891 5889 5888 5887 5885 5883
5867 5870 5873 5876 5877 5879 5881 5884 5886 5888 5889 5891 5891 5892 5893 5893 5894 5895 5895 5895 5895 5894 5894 5894 5894 5894 5893 5893 5893 5892 5892 5892 5892 5892 5891 5891 5890 5889 5888 5887 5886 5884 5882
5862 5865 5868 5871 5873 5875 5878 5880 5883 5885 5886 5888 5889 5889 5890 5891 5892 5893 5894 5893 5893 5893 5893 5893 5893 5893 5892 5891 5891 5891 5891 5890 5890 5890 5890 5889 5889 5888 5887 5886 5884 5883 5881
5858 5860 5863 5866 5869 5872 5874 5877 5880 5882 5884 5884 5886 5887 5888 5888 5889 5891 5892 5892 5892 5892 5892 5891 5891 5891 5891 5890 5890 5890 5890 5890 5889 5889 5889 5889 5888 5887 5886 5885 5883 5881 5879
5852 5856 5859 5862 5865 5868 5870 5873 5876 5879 5881 5883 5882 5884 5886 5886 5887 5888 5889 5890 5890 5890 5890 5890 5890 5890 5889 5889 5889 5889 5889 5888 5888 5888 5887 5887 5886 5885 5884 5883 5881 5879 5877
5847 5850 5854 5857 5860 5863 5866 5869 5872 5875 5877 5880 5880 5880 5882 5884 5885 5886 5886 5887 5888 5889 5889 5888 5888 5888 5888 5888 5887 5887 5887 5887 5887 5887 5886 5885 5884 5884 5883 5881 5879 5878 5876
5841 5844 5848 5851 5855 5859 5862 5865 5868 5871 5873 5875 5877 5877 5879 5880 5882 5882 5883 5884 5884 5886 5887 5887 5886 5886 5886 5886 5885 5885 5885 5885 5885 5885 5884 5883 5882 5881 5880 5879 5877 5875 5873
5834 5838 5841 5845 5850 5854 5857 5860 5863 5866 5869 5872 5873 5874 5875 5877 5879 5880 5881 5882 5882 5882 5883 5884 5885 5884 5884 5884 5884 5884 5884 5884 5883 5883 5883 5882 5881 5880 5878 5877 5875 5873 5872
5827 5831 5835 5838 5844 5848 5853 5855 5858 5861 5864 5867 5869 5870 5871 5873 5875 5876 5877 5878 5880 5881 5881 5881 5881 5881 5882 5883 5883 5882 5882 5882 5882 5882 5881 5880 5879 5878 5876 5875 5873 5871 5868
5818 5825 5827 5832 5837 5843 5847 5850 5854 5856 5859 5862 5864 5866 5867 5869 5871 5873 5874 5875 5876 5877 5878 5879 5879 5879 5879 5880 5880 5881 5880 5880 5880 5879 5878 5877 5876 5875 5873 5872 5870 5868 5865
5805 5816 5820 5825 5829 5835 5841 5845 5848 5851 5854 5856 5859 5861 5863 5864 5866 5867 5870 5871 5872 5873 5874 5875 5875 5876 5876 5876 5877 5877 5878 5877 5877 5877 5875 5874 5873 5872 5871 5869 5867 5865 5863
5793 5802 5811 5817 5822 5827 5832 5837 5841 5844 5848 5851 5854 5856 5858 5859 5861 5863 5865 5866 5868 5868 5869 5870 5871 5872 5872 5872 5872 5873 5873 5873 5873 5873 5872 5871 5870 5868 5867 5865 5863 5861 5858
5787 5794 5802 5808 5814 5820 5825 5829 5834 5838 5842 5845 5848 5850 5852 5854 5855 5857 5860 5861 5863 5864 5865 5865 5866 5867 5868 5868 5868 5868 5868 5868 5868 5868 5868 5866 5865 5863 5862 5861 5857 5854 5854
5780 5785 5792 5799 5806 5812 5818 5822 5826 5831 5834 5837 5841 5844 5846 5848 5850 5852 5854 5856 5857 5859 5860 5861 5862 5862 5863 5864 5863 5863 5863 5862 5862 5862 5862 5861 5859 5857 5856 5855 5853 5850 5847
5778 5781 5785 5789 5795 5802 5810 5815 5820 5824 5828 5832 5835 5837 5840 5842 5844 5846 5848 5850 5852 5853 5854 5855 5856 5857 5857 5858 5858 5858 5858 5857 5857 5856 5855 5855 5854 5852 5850 5848 5846 5844 5841
5771 5774 5777 5779 5786 5791 5799 5806 5812 5816 5822 5825 5827 5831 5834 5835 5838 5841 5842 5844 5845 5846 5847 5848 5850 5851 5851 5852 5852 5852 5851 5851 5851 5850 5849 5848 5847 5845 5844 5842 5840 5838 5835
5769 5775 5775 5777 5782 5788 5792 5799 5805 5810 5813 5816 5820 5824 5827 5829 5831 5833 5836 5838 5838 5839 5840 5842 5842 5843 5845 5845 5845 5845 5845 5845 5843 5843 5842 5841 5841 5840 5838 5836 5834 5832 5830
5764 5769 5775 5778 5780 5783 5789 5792 5797 5800 5806 5810 5816 5820 5822 5823 5826 5828 5830 5832 5833 5833 5834 5835 5836 5837 5836 5837 5838 5838 5838 5837 5837 5836 5834 5833 5833 5832 5832 5830 5828 5826 5823
5759 5766 5770 5775 5780 5781 5785 5789 5791 5794 5800 5805 5808 5812 5814 5818 5819 5821 5823 5826 5827 5827 5827 5828 5828 5830 5830 5829 5829 5830 5830 5830 5830 5828 5827 5825 5824 5824 5823 5822 5820 5818 5816
5755 5758 5764 5769 5775 5782 5784 5788 5790 5793 5796 5799 5802 5804 5806 5810 5812 5813 5816 5818 5820 5821 5820 5820 5821 5822 5823 5822 5823 5823 5822 5821 5821 5820 5818 5817 5816 5815 5815 5814 5811 5809 5807
5751 5755 5760 5765 5769 5775 5776 5782 5786 5790 5791 5794 5797 5800 5802 5805 5805 5804 5807 5810 5811 5811 5812 5812 5813 5813 5813 5814 5814 5813 5813 5813 5813 5812 5811 5810 5809 5807 5805 5804 5802 5800 5797
5744 5748 5750 5755 5759 5768 5769 5774 5779 5782 5785 5785 5788 5791 5795 5798 5798 5798 5799 5801 5802 5803 5803 5804 5804 5804 5804 5804 5804 5805 5805 5805 5804 5803 5802 5801 5801 5799 5797 5795 5792 5790 5788
5739 5742 5746 5750 5753 5759 5761 5767 5771 5774 5775 5777 5780 5783 5787 5790 5790 5791 5792 5792 5793 5792 5793 5794 5795 5795 5795 5793 5794 5796 5796 5796 5797 5797 5796 5795 5793 5792 5789 5786 5784 5781 5779
5738 5742 5745 5748 5751 5750 5752 5756 5761 5764 5764 5765 5772 5777 5776 5779 5781 5783 5783 5783 5783 5784 5785 5785 5786 5787 5786 5785 5786 5786 5785 5784 5784 5785 5787 5785 5784 5782 5780 5777 5775 5772 5770
5735 5739 5742 5744 5748 5749 5752 5751 5754 5756 5757 5760 5761 5765 5768 5770 5772 5774 5776 5776 5776 5776 5777 5777 5777 5778 5777 5776 5776 5776 5776 5775 5775 5774 5774 5773 5772 5771 5768 5767 5765 5762 5759
Wind_Speed
31 27 26 24 21 19 16 15 13 11 10 9 8 6 5 4 4 3 2 2 3 5 6 7 7 7 8 8 8 7 5 4 3 3 3 5 6 8 11 13 13 14 17
32 31 28 26 24 20 18 17 16 13 11 11 10 8 7 6 5 4 3 2 3 4 6 7 7 7 8 8 8 7 6 4 3 3 5 6 7 9 11 12 13 15 18
34 31 28 27 25 23 21 19 17 14 13 12 12 10 9 8 7 6 4 3 3 4 5 5 7 7 7 8 8 7 6 5 5 5 6 7 8 9 11 12 13 16 20
35 33 31 30 28 26 23 21 18 16 15 14 14 13 11 10 9 8 6 5 4 5 5 6 7 7 8 8 7 6 5 5 5 6 6 7 7 9 11 12 14 18 20
37 35 33 31 30 27 25 22 20 18 17 16 16 15 13 13 11 10 9 8 6 6 6 6 7 7 8 7 7 7 7 7 7 6 6 7 8 10 11 12 15 19 20
41 39 35 33 31 29 27 24 22 20 19 19 18 16 15 14 13 11 10 10 9 7 7 7 7 7 8 7 8 8 7 7 7 6 6 7 8 10 10 13 16 18 19
43 40 38 34 32 30 28 25 24 22 22 21 19 18 17 16 15 14 13 12 11 10 9 8 7 7 8 8 8 8 7 7 6 7 7 7 8 9 11 14 16 18 20
45 42 40 37 34 31 29 28 26 25 24 23 22 21 20 19 18 16 15 14 12 11 10 9 9 8 8 8 8 8 8 7 8 8 8 8 9 10 13 15 17 18 20
48 46 42 39 36 33 31 29 27 26 26 25 24 23 21 21 20 18 17 15 14 12 11 9 9 9 9 9 8 7 8 8 8 8 9 10 11 13 15 17 18 20 21
51 49 44 41 38 35 33 31 31 29 28 27 27 25 23 22 21 20 18 16 15 13 12 10 9 9 9 8 8 9 9 8 9 10 11 12 13 14 15 17 19 21 23
56 52 47 43 41 38 36 33 32 31 30 29 28 26 25 23 23 21 20 18 16 14 13 13 11 10 10 10 10 10 11 11 12 13 14 15 15 16 17 18 20 22 25
62 57 51 47 43 41 39 37 35 34 32 31 30 29 27 25 24 23 22 20 18 16 15 15 14 13 12 12 12 12 13 14 15 16 17 17 17 18 19 20 22 24 26
63 60 52 49 48 46 44 42 40 37 34 32 31 31 29 28 26 25 24 22 21 19 19 18 17 17 16 15 15 15 16 16 17 18 19 19 20 21 21 23 24 26 28
57 61 56 54 52 50 48 45 42 39 36 35 34 34 31 30 28 27 26 25 24 23 22 21 20 20 20 19 18 18 19 20 20 21 21 21 22 23 23 23 26 27 25
54 60 60 57 55 52 51 48 46 43 40 38 36 34 33 32 30 29 28 27 26 26 24 24 24 23 23 22 21 21 21 21 23 23 24 24 24 25 26 27 27 27 29
49 54 53 59 59 55 53 50 48 45 43 40 38 38 35 34 32 31 30 29 27 26 26 27 26 26 26 25 24 23 24 24 25 26 27 26 27 28 28 28 28 28 29
42 54 57 64 54 61 58 53 51 49 46 44 44 41 40 37 35 34 32 31 29 28 28 27 28 28 28 28 27 27 27 27 28 29 30 28 28 30 30 30 30 28 31
40 43 54 58 62 45 51 55 51 51 51 50 49 48 44 41 39 37 35 34 31 31 30 31 30 29 29 30 30 29 31 30 31 31 31 31 32 32 32 32 32 33 36
24 31 51 52 55 59 57 57 38 47 54 51 47 46 46 43 40 39 37 35 35 33 33 31 31 31 31 31 32 32 33 34 34 33 33 34 35 34 34 34 35 38 43
29 23 48 36 46 44 53 53 51 47 43 42 36 42 41 38 35 43 40 37 35 33 30 31 30 32 34 33 32 34 34 35 36 36 37 36 37 37 37 38 39 42 43
12 26 25 27 40 39 42 48 49 40 41 46 44 42 38 32 39 36 35 35 34 32 32 31 31 33 36 34 34 34 34 36 38 38 40 39 39 38 40 41 42 44 44
19 24 17 18 18 25 23 34 41 44 46 48 49 43 38 40 35 38 37 36 36 36 34 33 35 36 38 39 36 34 34 36 36 37 38 39 40 41 40 40 46 47 45
17 15 18 14 17 22 16 23 31 40 22 36 53 40 48 45 35 37 38 37 38 37 35 35 39 38 40 41 41 37 35 37 41 41 41 39 38 38 43 52 47 45 42
19 17 17 16 18 26 16 22 19 28 25 25 24 30 35 40 42 42 39 39 39 38 39 40 37 38 33 32 39 38 39 42 44 41 42 44 43 48 50 47 47 41 42
25 25 23 21 22 23 20 21 22 26 36 30 39 35 35 44 43 38 36 36 33 32 34 34 36 39 42 35 35 36 41 42 42 36 33 38 39 41 43 45 42 40 41
31 27 25 23 19 19 20 21 20 22 23 29 26 25 32 28 31 32 34 37 34 34 36 36 36 38 36 37 36 38 38 41 40 38 39 43 44 44 43 44 44 44 44
Wind_Direction
227 223 227 227 222 219 215 215 218 224 233 239 233 229 234 245 243 239 264 344 359 351 348 352 347 341 335 332 332 335 334 327 314 314 333 331 341 345 350 352 352 352 350
227 225 223 226 221 218 214 216 221 227 233 232 231 231 232 245 247 252 268 307 333 344 348 344 338 335 331 331 332 335 328 324 318 319 322 329 336 336 342 344 347 349 349
224 224 222 222 220 217 212 215 222 228 233 233 232 231 233 244 246 253 261 277 304 328 331 328 327 323 328 328 327 330 331 326 319 319 320 322 324 328 336 340 344 348 348
222 220 218 218 217 216 213 214 221 225 229 231 236 231 229 233 239 247 260 268 284 302 308 310 316 319 324 324 323 324 319 312 314 317 314 314 321 332 336 342 346 346 345
224 224 221 218 216 215 214 215 219 224 228 227 229 233 229 230 234 244 256 267 276 285 297 308 313 315 317 319 316 314 314 315 316 314 309 316 324 328 334 340 341 341 342
224 225 221 218 217 215 215 216 218 223 227 229 224 228 235 232 237 238 250 261 269 276 283 294 299 301 303 306 310 310 309 306 305 306 310 313 318 323 329 335 334 335 337
223 221 218 216 217 216 216 216 220 222 225 229 228 225 231 233 237 243 247 255 266 275 279 284 287 293 300 303 305 305 305 302 302 304 305 311 316 318 323 325 328 331 335
220 220 217 215 215 216 217 219 221 224 226 227 228 226 229 233 237 239 245 250 256 271 281 287 289 292 296 299 302 302 302 301 303 306 309 311 312 311 316 320 323 328 333
222 221 217 216 216 217 217 219 221 224 227 229 229 231 230 234 238 242 246 252 256 259 264 270 285 291 296 299 300 297 298 301 301 303 304 306 307 309 315 318 321 326 331
221 220 217 216 217 218 220 220 223 224 226 228 230 231 231 234 237 242 245 250 256 260 262 263 265 275 284 287 289 294 295 293 293 296 297 297 300 305 308 313 317 323 330
222 220 216 215 218 220 221 221 224 225 226 226 229 231 230 233 236 239 243 244 249 253 258 263 262 264 270 276 277 281 284 288 289 288 289 292 297 302 306 311 317 321 326
217 219 218 217 217 218 221 223 223 224 225 225 228 230 231 231 233 235 239 243 245 249 254 259 262 261 261 266 272 275 279 282 285 286 289 293 297 300 305 309 315 319 321
211 212 214 219 219 219 220 221 222 222 222 223 227 229 229 231 231 235 238 242 245 247 250 253 258 259 260 263 267 273 276 278 282 285 289 292 294 296 301 307 314 315 318
210 214 213 217 217 219 219 216 217 219 220 222 225 228 228 230 230 234 238 241 244 247 250 252 255 257 260 261 264 267 272 276 277 281 286 289 291 294 298 302 306 307 312
211 211 214 212 215 214 216 216 217 216 217 219 222 227 227 230 231 234 238 241 244 248 251 254 255 258 260 262 264 267 268 271 275 278 283 286 287 290 293 298 303 308 314
212 210 211 210 208 208 211 212 215 217 219 220 222 227 227 229 230 232 235 240 243 248 252 255 256 259 261 262 266 267 269 270 273 276 279 282 285 289 294 299 301 306 312
217 208 204 208 209 212 208 210 213 216 219 222 224 226 228 229 230 233 235 240 243 247 250 253 257 259 262 264 265 267 268 272 275 277 279 282 285 290 293 297 300 301 306
205 212 201 206 213 213 215 216 218 221 222 226 229 229 230 232 233 234 238 241 243 249 252 255 256 259 263 266 267 269 273 273 273 276 280 283 287 288 290 292 295 297 301
214 216 205 205 201 215 220 214 217 222 224 228 230 233 237 236 238 240 241 244 249 250 252 255 260 263 263 265 269 270 271 273 275 277 278 281 283 284 288 290 293 297 301
215 215 198 211 222 213 211 212 215 219 222 222 227 234 236 236 242 240 244 247 248 251 255 258 261 264 265 264 265 269 273 276 276 277 277 279 282 285 287 290 295 300 303
238 209 212 206 204 219 223 224 220 223 228 229 234 233 228 227 234 234 238 245 251 253 256 260 264 264 266 266 267 270 274 275 276 277 276 278 280 283 286 289 294 300 303
204 215 204 202 200 222 206 225 222 230 240 229 235 232 230 229 236 235 235 242 248 252 256 260 263 265 266 267 266 266 269 273 274 278 282 284 284 286 289 290 296 298 301
220 228 230 234 226 211 217 216 228 209 231 229 237 234 232 234 237 241 244 246 251 255 260 262 264 267 268 267 265 265 262 267 272 280 283 285 284 286 289 293 294 296 297
249 265 266 278 250 229 243 206 228 221 222 238 226 221 233 236 234 242 244 247 252 258 259 261 263 267 255 263 266 265 266 268 271 272 275 277 277 282 286 288 293 290 292
252 259 264 269 282 270 256 255 237 242 248 229 232 228 236 240 234 240 247 246 250 252 254 259 260 273 265 262 262 265 268 270 272 272 275 279 285 288 288 288 286 288 291
245 248 256 260 248 258 268 280 276 250 258 251 239 250 254 244 242 249 251 250 254 261 263 261 262 268 270 263 262 261 263 267 267 280 287 289 290 293 287 286 287 288 287